Content
SEND FEEDBACK

Daily
Averages
Monthly
Summary
Greece

ATHENS, GREECE


Home > Europe > Greece
Elevation: 69 feet     Latitude: 37 54N     Longitude: 023 44E

WEATHER
 
SELECT A DAY
Number of Records: 77,261;   Date Range: 4/14/01 - 9/21/14
 
SHARE

PRINT THIS DATA

[ ← Previous Day ]
WEATHER ALMANAC - JANUARY 18, 2013
[ Next Day → ]
[ °C ]   °F
Weather ElementAverageHighLow
Temperature53.8 °F59 °F (12:50 am)46.4 °F (10:20 pm)
Dewpoint44.2 °F50 °F (9:50 am)35.6 °F (4:50 pm)
Humidity70.4 %82 % (9:50 am)51 % (4:50 pm)
Barometer29.53 in29.65 in (12:50 am)29.47 in (11:20 am)
Wind Speed18.8 mph32.2 mph (11:20 am)
Wind Gust43.7 mph (10:50 am)
Weather ElementAverage
Visibility5.7 mi
Wind DirectionSSW (209.2 °)

Weather ElementTotal
Precipitation---
Heating Degree Days12.3 (Base 65)
Growing Degree Days2.7 (Base 50)
Averaged from 48 records on January 18, 2013
WEATHER CONDITIONS BREAKOUT
WIND DIRECTION BREAKOUT
WEATHER BY HOUR - JANUARY 18, 2013
[ °C ]   °F
Local TimeTemperatureDewpointHumidityBarometerVisibilityWind DirectionWind SpeedGust SpeedPrecipitationEventsConditions
12:50 AM59.0 °F48.2 °F67 %29.65 in6.2 miSouth (180°)24.2 mph35.7 mphRainLight Rain
1:20 AM57.2 °F48.2 °F72 %29.65 in6.2 miSouth (180°)24.2 mphRainLight Rain
1:50 AM55.4 °F48.2 °F77 %29.65 in6.2 miSouth (190°)29.9 mphRainLight Rain
2:20 AM55.4 °F48.2 °F77 %29.62 in6.2 miSouth (190°)29.9 mphDrizzle
2:50 AM57.2 °F48.2 °F72 %29.62 in6.2 miSSW (200°)26.5 mphMostly Cloudy
3:20 AM57.2 °F48.2 °F72 %29.62 in6.2 miSouth (190°)26.5 mphMostly Cloudy
3:50 AM57.2 °F48.2 °F72 %29.59 in6.2 miSouth (190°)28.8 mphMostly Cloudy
4:20 AM57.2 °F48.2 °F72 %29.56 in6.2 miSouth (180°)28.8 mphMostly Cloudy
4:50 AM57.2 °F46.4 °F67 %29.56 in6.2 miSouth (180°)18.4 mphMostly Cloudy
5:20 AM59.0 °F48.2 °F67 %29.56 in6.2 miSouth (180°)24.2 mphMostly Cloudy
5:50 AM55.4 °F46.4 °F72 %29.53 in6.2 miSouth (180°)20.7 mphMostly Cloudy
6:20 AM57.2 °F48.2 °F72 %29.53 in6.2 miSouth (190°)27.6 mphMostly Cloudy
6:50 AM55.4 °F46.4 °F72 %29.53 in6.2 miSouth (190°)27.6 mph42.6 mphDrizzle
7:20 AM55.4 °F46.4 °F72 %29.53 in6.2 miSW (220°)18.4 mphMostly Cloudy
7:50 AM55.4 °F46.4 °F72 %29.50 in5.0 miSSW (200°)21.9 mph39.1 mphRainLight Rain
8:20 AM55.4 °F48.2 °F77 %29.53 in5.0 miSSW (200°)26.5 mphRainLight Rain
8:50 AM55.4 °F48.2 °F77 %29.53 in3.7 miSouth (190°)23.0 mphRainLight Rain
9:04 AM55.4 °F48.2 °F77 %29.53 in3.7 miSouth (190°)23.0 mphRainRain
9:20 AM55.4 °F48.2 °F77 %29.53 in5.0 miSouth (190°)18.4 mphRainLight Rain
9:50 AM55.4 °F50.0 °F82 %29.53 in6.2 miSouth (180°)23.0 mphMostly Cloudy
10:20 AM57.2 °F48.2 °F72 %29.50 in6.2 miSouth (190°)29.9 mph41.4 mphMostly Cloudy
10:50 AM57.2 °F48.2 °F72 %29.50 in6.2 miSouth (190°)31.1 mph43.7 mphMostly Cloudy
11:20 AM57.2 °F46.4 °F67 %29.47 in6.2 miSSW (200°)32.2 mph43.7 mphMostly Cloudy
11:50 AM57.2 °F48.2 °F72 %29.47 in5.0 miSouth (190°)32.2 mphMostly Cloudy
12:20 PM55.4 °F50.0 °F82 %29.47 in3.7 miSSW (200°)23.0 mph34.5 mphRainLight Rain
12:50 PM55.4 °F50.0 °F82 %29.47 in3.7 miSW (220°)17.3 mphRainLight Rain
1:20 PM53.6 °F48.2 °F82 %29.47 in3.7 miWSW (240°)10.4 mphRainLight Rain
1:50 PM53.6 °F48.2 °F82 %29.47 in3.7 miSW (230°)8.1 mphRainLight Rain
2:20 PM53.6 °F48.2 °F82 %29.47 in6.2 miSW (220°)11.5 mphMostly Cloudy
2:50 PM51.8 °F42.8 °F71 %29.50 in2.5 miWest (260°)19.6 mphRainLight Rain
3:20 PM51.8 °F42.8 °F71 %29.47 in6.2 miSW (230°)10.4 mphScattered Clouds
3:50 PM51.8 °F44.6 °F76 %29.47 in6.2 miSW (220°)12.7 mphMostly Cloudy
4:20 PM51.8 °F44.6 °F76 %29.50 in6.2 miSW (230°)9.2 mphMostly Cloudy
4:50 PM53.6 °F35.6 °F51 %29.50 in6.2 miSW (230°)19.6 mph33.4 mphMostly Cloudy
5:20 PM51.8 °F37.4 °F58 %29.50 in6.2 miSW (230°)11.5 mphScattered Clouds
5:50 PM51.8 °F37.4 °F58 %29.50 in6.2 miWSW (240°)8.1 mphScattered Clouds
6:20 PM51.8 °F37.4 °F58 %29.53 in6.2 miWSW (240°)9.2 mphScattered Clouds
6:50 PM51.8 °F37.4 °F58 %29.50 in6.2 miSW (220°)5.8 mphScattered Clouds
7:20 PM51.8 °F37.4 °F58 %29.50 in6.2 miWest (260°)5.8 mphMostly Cloudy
7:50 PM51.8 °F37.4 °F58 %29.53 in6.2 miSW (220°)6.9 mphMostly Cloudy
8:20 PM50.0 °F37.4 °F62 %29.53 in6.2 miWSW (250°)23.0 mphRainLight Rain
8:50 PM48.2 °F39.2 °F71 %29.53 in6.2 miSW (230°)10.4 mphMostly Cloudy
9:20 PM48.2 °F37.4 °F66 %29.53 in6.2 miSW (230°)16.1 mphMostly Cloudy
9:50 PM48.2 °F37.4 °F66 %29.53 in6.2 miSW (220°)12.7 mphScattered Clouds
10:20 PM46.4 °F37.4 °F71 %29.53 in6.2 miSSW (200°)12.7 mphPartly Cloudy
10:50 PM46.4 °F35.6 °F66 %29.56 in6.2 miSW (220°)5.8 mphPartly Cloudy
11:20 PM48.2 °F35.6 °F62 %29.56 in6.2 miSW (230°)5.8 mphPartly Cloudy
11:50 PM48.2 °F35.6 °F62 %29.53 in6.2 miSSW (210°)10.4 mphPartly Cloudy
Hourly data recorded from LGAV, located miles away from Athens, Greece







STORIES FROM OUR PARTNERS